This is the latest recevied weather packets stored in our database for station/object N3LF. If no packets are shown the sender has not sent any weather packets the latest 10 day(s).
| Time | Temp. | Humidity | Pressure | Rain* | Wind** | Luminosity | Snow |
|---|---|---|---|---|---|---|---|
| 1777893022 | 13.89° C | 74% | 1015.6 hPa | 0 mm | - | 9 W/m² | - |
| 1777892720 | 13.89° C | 74% | 1015.6 hPa | 0 mm | - | 6 W/m² | - |
| 1777892421 | 13.33° C | 74% | 1015.4 hPa | 0 mm | - | 4 W/m² | - |
| 1777892117 | 13.33° C | 74% | 1015.6 hPa | 0 mm | - | 3 W/m² | - |
| 1777891814 | 13.33° C | 75% | 1015.4 hPa | 0 mm | - | 1 W/m² | - |
| 1777891511 | 13.33° C | 75% | 1015.3 hPa | 0 mm | - | 1 W/m² | - |
| 1777891208 | 13.33° C | 78% | 1015.3 hPa | 0 mm | - | 0 W/m² | - |
| 1777890902 | 13.33° C | 74% | 1015.5 hPa | 0 mm | - | 0 W/m² | - |
| 1777890597 | 13.33° C | 72% | 1015.5 hPa | 0 mm | - | 0 W/m² | - |
| 1777890293 | 13.33° C | 75% | 1015.4 hPa | 0 mm | - | 0 W/m² | - |
| 1777889989 | 12.78° C | 74% | 1015.4 hPa | 0 mm | - | 0 W/m² | - |
| 1777889687 | 12.78° C | 78% | 1015.3 hPa | 0 mm | - | 0 W/m² | - |
| 1777889384 | 12.78° C | 76% | 1015.3 hPa | 0 mm | - | 0 W/m² | - |
| 1777889082 | 12.22° C | 79% | 1015.2 hPa | 0 mm | - | 0 W/m² | - |
| 1777888779 | 12.22° C | 80% | 1015.2 hPa | 0 mm | - | 0 W/m² | - |
| 1777888476 | 12.22° C | 78% | 1015.4 hPa | 0 mm | - | 0 W/m² | - |
| 1777888171 | 12.22° C | 78% | 1015.3 hPa | 0 mm | - | 0 W/m² | - |
| 1777887869 | 12.22° C | 79% | 1015.4 hPa | 0 mm | - | 0 W/m² | - |
| 1777887566 | 11.67° C | 82% | 1015.4 hPa | 0 mm | - | 0 W/m² | - |
| 1777887267 | 11.67° C | 80% | 1015.5 hPa | 0 mm | - | 0 W/m² | - |
| 1777886963 | 11.67° C | 79% | 1015.5 hPa | 0 mm | - | 0 W/m² | - |
| 1777886659 | 11.67° C | 81% | 1015.4 hPa | 0 mm | - | 0 W/m² | - |
| 1777886356 | 11.11° C | 82% | 1015.4 hPa | 0 mm | - | 0 W/m² | - |
| 1777886054 | 11.11° C | 83% | 1015.5 hPa | 0 mm | - | 0 W/m² | - |
| 1777885752 | 10.56° C | 82% | 1015.5 hPa | 0 mm | - | 0 W/m² | - |
* Rain latest hour (hover to see other rain measurements)
** Current wind speed in m/s (hover to see current wind gust speed)